owner,sensor,date,latitude,longitude,vertical_datum,mass_concentration_of_oxygen_in_sea_water,qcFlag 
SCCF RECON,ioos:station:SCCF:56:1,2017-12-01T05:00:00Z,26.4645,-82.1044,1.882,5.82,1111122 
SCCF RECON,ioos:station:SCCF:56:1,2017-12-01T06:00:00Z,26.4645,-82.1044,1.733,5.38,1111122 
SCCF RECON,ioos:station:SCCF:56:1,2017-12-01T07:00:00Z,26.4645,-82.1044,1.57,4.95,1111122 
SCCF RECON,ioos:station:SCCF:56:1,2017-12-01T08:00:00Z,26.4645,-82.1044,1.43,4.42,1111122 
SCCF RECON,ioos:station:SCCF:56:1,2017-12-01T09:00:00Z,26.4645,-82.1044,1.303,4.19,1111122 
SCCF RECON,ioos:station:SCCF:56:1,2017-12-01T10:00:00Z,26.4645,-82.1044,1.19,3.97,1111122 
SCCF RECON,ioos:station:SCCF:56:1,2017-12-01T11:00:00Z,26.4645,-82.1044,1.145,3.72,1111122 
SCCF RECON,ioos:station:SCCF:56:1,2017-12-01T12:00:00Z,26.4645,-82.1044,1.271,3.96,1111122 
SCCF RECON,ioos:station:SCCF:56:1,2017-12-01T13:00:00Z,26.4645,-82.1044,1.472,4.53,1111122 
SCCF RECON,ioos:station:SCCF:56:1,2017-12-01T14:00:00Z,26.4645,-82.1044,1.627,5.76,1111122 
SCCF RECON,ioos:station:SCCF:56:1,2017-12-01T15:00:00Z,26.4645,-82.1044,1.747,6.0,1111122 
SCCF RECON,ioos:station:SCCF:56:1,2017-12-01T16:00:00Z,26.4645,-82.1044,1.82,6.13,1111122 
SCCF RECON,ioos:station:SCCF:56:1,2017-12-01T17:00:00Z,26.4645,-82.1044,1.83,6.09,1111122 
SCCF RECON,ioos:station:SCCF:56:1,2017-12-01T18:00:00Z,26.4645,-82.1044,1.754,5.94,1111122 
SCCF RECON,ioos:station:SCCF:56:1,2017-12-01T19:00:00Z,26.4645,-82.1044,1.66,5.77,1111122 
SCCF RECON,ioos:station:SCCF:56:1,2017-12-01T20:00:00Z,26.4645,-82.1044,1.575,5.53,1111122 
SCCF RECON,ioos:station:SCCF:56:1,2017-12-01T21:00:00Z,26.4645,-82.1044,1.53,5.74,1111122 
SCCF RECON,ioos:station:SCCF:56:1,2017-12-01T22:00:00Z,26.4645,-82.1044,1.51,5.46,1111122 
SCCF RECON,ioos:station:SCCF:56:1,2017-12-02T05:00:00Z,26.4645,-82.1044,2.034,5.91,1111122 
SCCF RECON,ioos:station:SCCF:56:1,2017-12-02T06:00:00Z,26.4645,-82.1044,1.9,5.44,1111122 
SCCF RECON,ioos:station:SCCF:56:1,2017-12-02T07:00:00Z,26.4645,-82.1044,1.72,5.0,1111122 
SCCF RECON,ioos:station:SCCF:56:1,2017-12-02T08:00:00Z,26.4645,-82.1044,1.541,4.47,1111122 
SCCF RECON,ioos:station:SCCF:56:1,2017-12-02T09:00:00Z,26.4645,-82.1044,1.39,4.11,1111122 
SCCF RECON,ioos:station:SCCF:56:1,2017-12-02T10:00:00Z,26.4645,-82.1044,1.25,3.89,1111122 
SCCF RECON,ioos:station:SCCF:56:1,2017-12-02T11:00:00Z,26.4645,-82.1044,1.15,3.71,1111122 
SCCF RECON,ioos:station:SCCF:56:1,2017-12-02T12:00:00Z,26.4645,-82.1044,1.147,3.36,1111122 
SCCF RECON,ioos:station:SCCF:56:1,2017-12-02T13:00:00Z,26.4645,-82.1044,1.31,4.07,1111122 
SCCF RECON,ioos:station:SCCF:56:1,2017-12-02T14:00:00Z,26.4645,-82.1044,1.52,4.32,1111122 
SCCF RECON,ioos:station:SCCF:56:1,2017-12-02T15:00:00Z,26.4645,-82.1044,1.676,5.81,1111122 
SCCF RECON,ioos:station:SCCF:56:1,2017-12-02T16:00:00Z,26.4645,-82.1044,1.801,6.17,1111122 
SCCF RECON,ioos:station:SCCF:56:1,2017-12-02T17:00:00Z,26.4645,-82.1044,1.88,6.13,1111122 
SCCF RECON,ioos:station:SCCF:56:1,2017-12-02T18:00:00Z,26.4645,-82.1044,1.87,6.22,1111122 
SCCF RECON,ioos:station:SCCF:56:1,2017-12-02T19:00:00Z,26.4645,-82.1044,1.789,5.85,1111122 
SCCF RECON,ioos:station:SCCF:56:1,2017-12-02T20:00:00Z,26.4645,-82.1044,1.68,6.12,1111122 
SCCF RECON,ioos:station:SCCF:56:1,2017-12-02T21:00:00Z,26.4645,-82.1044,1.61,5.95,1111122 
SCCF RECON,ioos:station:SCCF:56:1,2017-12-02T22:00:00Z,26.4645,-82.1044,1.57,5.76,1111122 
SCCF RECON,ioos:station:SCCF:56:1,2017-12-03T05:00:00Z,26.4645,-82.1044,2.117,5.64,1111122 
SCCF RECON,ioos:station:SCCF:56:1,2017-12-03T06:00:00Z,26.4645,-82.1044,2.03,5.33,1111122 
SCCF RECON,ioos:station:SCCF:56:1,2017-12-03T07:00:00Z,26.4645,-82.1044,1.86,5.07,1111122 
SCCF RECON,ioos:station:SCCF:56:1,2017-12-03T08:00:00Z,26.4645,-82.1044,1.678,4.72,1111122 
SCCF RECON,ioos:station:SCCF:56:1,2017-12-03T09:00:00Z,26.4645,-82.1044,1.5,4.23,1111122 
SCCF RECON,ioos:station:SCCF:56:1,2017-12-03T10:00:00Z,26.4645,-82.1044,1.35,3.99,1111122 
SCCF RECON,ioos:station:SCCF:56:1,2017-12-03T11:00:00Z,26.4645,-82.1044,1.22,3.69,1111122 
SCCF RECON,ioos:station:SCCF:56:1,2017-12-03T12:00:00Z,26.4645,-82.1044,1.12,3.41,1111122 
SCCF RECON,ioos:station:SCCF:56:1,2017-12-03T13:00:00Z,26.4645,-82.1044,1.13,3.07,1111122 
SCCF RECON,ioos:station:SCCF:56:1,2017-12-03T14:00:00Z,26.4645,-82.1044,1.34,3.91,1111122 
SCCF RECON,ioos:station:SCCF:56:1,2017-12-03T15:00:00Z,26.4645,-82.1044,1.552,5.26,1111122 
SCCF RECON,ioos:station:SCCF:56:1,2017-12-03T16:00:00Z,26.4645,-82.1044,1.71,6.05,1111122 
SCCF RECON,ioos:station:SCCF:56:1,2017-12-03T17:00:00Z,26.4645,-82.1044,1.828,5.83,1111122 
SCCF RECON,ioos:station:SCCF:56:1,2017-12-03T18:00:00Z,26.4645,-82.1044,1.9,6.02,1111122 
SCCF RECON,ioos:station:SCCF:56:1,2017-12-03T19:00:00Z,26.4645,-82.1044,1.9,6.17,1111122 
SCCF RECON,ioos:station:SCCF:56:1,2017-12-03T20:00:00Z,26.4645,-82.1044,1.81,6.06,1111122 
SCCF RECON,ioos:station:SCCF:56:1,2017-12-03T21:00:00Z,26.4645,-82.1044,1.71,5.6,1111122 
SCCF RECON,ioos:station:SCCF:56:1,2017-12-03T22:00:00Z,26.4645,-82.1044,1.66,5.57,1111122 
SCCF RECON,ioos:station:SCCF:56:1,2017-12-04T05:00:00Z,26.4645,-82.1044,2.111,5.48,1111122 
SCCF RECON,ioos:station:SCCF:56:1,2017-12-04T06:00:00Z,26.4645,-82.1044,2.09,5.24,1111122 
SCCF RECON,ioos:station:SCCF:56:1,2017-12-04T07:00:00Z,26.4645,-82.1044,1.96,4.94,1111122 
SCCF RECON,ioos:station:SCCF:56:1,2017-12-04T08:00:00Z,26.4645,-82.1044,1.78,4.65,1111122 
SCCF RECON,ioos:station:SCCF:56:1,2017-12-04T09:00:00Z,26.4645,-82.1044,1.61,4.1,1111122 
SCCF RECON,ioos:station:SCCF:56:1,2017-12-04T10:00:00Z,26.4645,-82.1044,1.44,3.91,1111122 
SCCF RECON,ioos:station:SCCF:56:1,2017-12-04T11:00:00Z,26.4645,-82.1044,1.29,3.64,1111122 
SCCF RECON,ioos:station:SCCF:56:1,2017-12-04T12:00:00Z,26.4645,-82.1044,1.152,3.32,1111122 
SCCF RECON,ioos:station:SCCF:56:1,2017-12-04T13:00:00Z,26.4645,-82.1044,1.059,2.98,1111122 
SCCF RECON,ioos:station:SCCF:56:1,2017-12-04T14:00:00Z,26.4645,-82.1044,1.077,2.92,1111122 
SCCF RECON,ioos:station:SCCF:56:1,2017-12-04T15:00:00Z,26.4645,-82.1044,1.31,5.32,1111122 
SCCF RECON,ioos:station:SCCF:56:1,2017-12-04T16:00:00Z,26.4645,-82.1044,1.51,6.0,1111122 
SCCF RECON,ioos:station:SCCF:56:1,2017-12-04T17:00:00Z,26.4645,-82.1044,1.65,6.41,1111122 
SCCF RECON,ioos:station:SCCF:56:1,2017-12-04T18:00:00Z,26.4645,-82.1044,1.757,6.29,1111122 
SCCF RECON,ioos:station:SCCF:56:1,2017-12-04T19:00:00Z,26.4645,-82.1044,1.823,6.18,1111122 
SCCF RECON,ioos:station:SCCF:56:1,2017-12-04T20:00:00Z,26.4645,-82.1044,1.829,6.21,1111122 
SCCF RECON,ioos:station:SCCF:56:1,2017-12-04T21:00:00Z,26.4645,-82.1044,1.769,5.8,1111122 
SCCF RECON,ioos:station:SCCF:56:1,2017-12-04T22:00:00Z,26.4645,-82.1044,1.709,5.96,1111122 
SCCF RECON,ioos:station:SCCF:56:1,2017-12-05T05:00:00Z,26.4645,-82.1044,2.12,5.4,1111122 
SCCF RECON,ioos:station:SCCF:56:1,2017-12-05T06:00:00Z,26.4645,-82.1044,2.132,5.65,1111122 
SCCF RECON,ioos:station:SCCF:56:1,2017-12-05T07:00:00Z,26.4645,-82.1044,2.085,5.04,1111122 
SCCF RECON,ioos:station:SCCF:56:1,2017-12-05T08:00:00Z,26.4645,-82.1044,1.96,4.95,1111122 
SCCF RECON,ioos:station:SCCF:56:1,2017-12-05T09:00:00Z,26.4645,-82.1044,1.79,4.46,1111122 
SCCF RECON,ioos:station:SCCF:56:1,2017-12-05T10:00:00Z,26.4645,-82.1044,1.62,4.16,1111122 
SCCF RECON,ioos:station:SCCF:56:1,2017-12-05T11:00:00Z,26.4645,-82.1044,1.46,3.89,1111122 
SCCF RECON,ioos:station:SCCF:56:1,2017-12-05T12:00:00Z,26.4645,-82.1044,1.32,3.61,1111122 
SCCF RECON,ioos:station:SCCF:56:1,2017-12-05T13:00:00Z,26.4645,-82.1044,1.189,3.35,1111122 
SCCF RECON,ioos:station:SCCF:56:1,2017-12-05T14:00:00Z,26.4645,-82.1044,1.101,3.24,1111122 
SCCF RECON,ioos:station:SCCF:56:1,2017-12-05T15:00:00Z,26.4645,-82.1044,1.18,3.18,1111122 
SCCF RECON,ioos:station:SCCF:56:1,2017-12-05T16:00:00Z,26.4645,-82.1044,1.401,5.35,1111122 
SCCF RECON,ioos:station:SCCF:56:1,2017-12-05T17:00:00Z,26.4645,-82.1044,1.58,6.27,1111122 
SCCF RECON,ioos:station:SCCF:56:1,2017-12-05T18:00:00Z,26.4645,-82.1044,1.69,6.65,1111122 
SCCF RECON,ioos:station:SCCF:56:1,2017-12-05T19:00:00Z,26.4645,-82.1044,1.774,5.89,1111122 
SCCF RECON,ioos:station:SCCF:56:1,2017-12-05T20:00:00Z,26.4645,-82.1044,1.82,5.94,1111122 
SCCF RECON,ioos:station:SCCF:56:1,2017-12-05T21:00:00Z,26.4645,-82.1044,1.797,5.98,1111122 
SCCF RECON,ioos:station:SCCF:56:1,2017-12-05T22:00:00Z,26.4645,-82.1044,1.74,6.0,1111122 
SCCF RECON,ioos:station:SCCF:56:1,2017-12-06T05:00:00Z,26.4645,-82.1044,2.037,5.48,1111122 
SCCF RECON,ioos:station:SCCF:56:1,2017-12-06T06:00:00Z,26.4645,-82.1044,2.09,5.52,1111122 
SCCF RECON,ioos:station:SCCF:56:1,2017-12-06T07:00:00Z,26.4645,-82.1044,2.08,5.35,1111122 
SCCF RECON,ioos:station:SCCF:56:1,2017-12-06T08:00:00Z,26.4645,-82.1044,2.01,4.84,1111122 
SCCF RECON,ioos:station:SCCF:56:1,2017-12-06T09:00:00Z,26.4645,-82.1044,1.88,4.76,1111122 
SCCF RECON,ioos:station:SCCF:56:1,2017-12-06T10:00:00Z,26.4645,-82.1044,1.72,4.39,1111122 
SCCF RECON,ioos:station:SCCF:56:1,2017-12-06T11:00:00Z,26.4645,-82.1044,1.554,3.92,1111122 
SCCF RECON,ioos:station:SCCF:56:1,2017-12-06T12:00:00Z,26.4645,-82.1044,1.401,3.72,1111122 
SCCF RECON,ioos:station:SCCF:56:1,2017-12-06T13:00:00Z,26.4645,-82.1044,1.27,3.45,1111122 
SCCF RECON,ioos:station:SCCF:56:1,2017-12-06T14:00:00Z,26.4645,-82.1044,1.149,3.2,1111122 
SCCF RECON,ioos:station:SCCF:56:1,2017-12-06T15:00:00Z,26.4645,-82.1044,1.09,3.08,1111122 
SCCF RECON,ioos:station:SCCF:56:1,2017-12-06T16:00:00Z,26.4645,-82.1044,1.2,3.51,1111122 
SCCF RECON,ioos:station:SCCF:56:1,2017-12-06T17:00:00Z,26.4645,-82.1044,1.42,5.39,1111122 
SCCF RECON,ioos:station:SCCF:56:1,2017-12-06T18:00:00Z,26.4645,-82.1044,1.565,6.08,1111122 
SCCF RECON,ioos:station:SCCF:56:1,2017-12-06T19:00:00Z,26.4645,-82.1044,1.67,6.12,1111122 
SCCF RECON,ioos:station:SCCF:56:1,2017-12-06T20:00:00Z,26.4645,-82.1044,1.75,6.16,1111122 
SCCF RECON,ioos:station:SCCF:56:1,2017-12-06T21:00:00Z,26.4645,-82.1044,1.8,6.23,1111122 
SCCF RECON,ioos:station:SCCF:56:1,2017-12-06T22:00:00Z,26.4645,-82.1044,1.789,6.27,1111122 
SCCF RECON,ioos:station:SCCF:56:1,2017-12-07T05:00:00Z,26.4645,-82.1044,1.89,5.16,1111122 
SCCF RECON,ioos:station:SCCF:56:1,2017-12-07T06:00:00Z,26.4645,-82.1044,1.95,5.19,1111122 
SCCF RECON,ioos:station:SCCF:56:1,2017-12-07T07:00:00Z,26.4645,-82.1044,1.95,5.1,1111122 
SCCF RECON,ioos:station:SCCF:56:1,2017-12-07T08:00:00Z,26.4645,-82.1044,1.95,4.94,1111122 
SCCF RECON,ioos:station:SCCF:56:1,2017-12-07T09:00:00Z,26.4645,-82.1044,1.922,4.96,1111122 
SCCF RECON,ioos:station:SCCF:56:1,2017-12-07T10:00:00Z,26.4645,-82.1044,1.82,4.31,1111122 
SCCF RECON,ioos:station:SCCF:56:1,2017-12-07T11:00:00Z,26.4645,-82.1044,1.67,4.12,1111122 
SCCF RECON,ioos:station:SCCF:56:1,2017-12-07T12:00:00Z,26.4645,-82.1044,1.494,3.63,1111122 
SCCF RECON,ioos:station:SCCF:56:1,2017-12-07T13:00:00Z,26.4645,-82.1044,1.35,3.4,1111122 
SCCF RECON,ioos:station:SCCF:56:1,2017-12-07T14:00:00Z,26.4645,-82.1044,1.23,3.15,1111122 
SCCF RECON,ioos:station:SCCF:56:1,2017-12-07T15:00:00Z,26.4645,-82.1044,1.122,3.04,1111122 
SCCF RECON,ioos:station:SCCF:56:1,2017-12-07T16:00:00Z,26.4645,-82.1044,1.071,3.17,1111122 
SCCF RECON,ioos:station:SCCF:56:1,2017-12-07T17:00:00Z,26.4645,-82.1044,1.21,3.89,1111122 
SCCF RECON,ioos:station:SCCF:56:1,2017-12-07T18:00:00Z,26.4645,-82.1044,1.403,5.63,1111122 
SCCF RECON,ioos:station:SCCF:56:1,2017-12-07T19:00:00Z,26.4645,-82.1044,1.547,6.09,1111122 
SCCF RECON,ioos:station:SCCF:56:1,2017-12-07T20:00:00Z,26.4645,-82.1044,1.649,6.11,1111122 
SCCF RECON,ioos:station:SCCF:56:1,2017-12-07T22:00:00Z,26.4645,-82.1044,1.76,6.03,1111122 
SCCF RECON,ioos:station:SCCF:56:1,2017-12-08T05:00:00Z,26.4645,-82.1044,1.76,4.56,1111122 
SCCF RECON,ioos:station:SCCF:56:1,2017-12-08T06:00:00Z,26.4645,-82.1044,1.84,4.95,1111122 
SCCF RECON,ioos:station:SCCF:56:1,2017-12-08T07:00:00Z,26.4645,-82.1044,1.9,5.0,1111122 
SCCF RECON,ioos:station:SCCF:56:1,2017-12-08T08:00:00Z,26.4645,-82.1044,1.94,5.08,1111122 
SCCF RECON,ioos:station:SCCF:56:1,2017-12-08T09:00:00Z,26.4645,-82.1044,1.94,4.79,1111122 
SCCF RECON,ioos:station:SCCF:56:1,2017-12-08T10:00:00Z,26.4645,-82.1044,1.901,4.78,1111122 
SCCF RECON,ioos:station:SCCF:56:1,2017-12-08T11:00:00Z,26.4645,-82.1044,1.828,4.68,1111122 
SCCF RECON,ioos:station:SCCF:56:1,2017-12-08T12:00:00Z,26.4645,-82.1044,1.67,4.15,1111122 
SCCF RECON,ioos:station:SCCF:56:1,2017-12-08T13:00:00Z,26.4645,-82.1044,1.52,3.54,1111122 
SCCF RECON,ioos:station:SCCF:56:1,2017-12-08T14:00:00Z,26.4645,-82.1044,1.4,3.27,1111122 
SCCF RECON,ioos:station:SCCF:56:1,2017-12-08T15:00:00Z,26.4645,-82.1044,1.281,3.06,1111122 
SCCF RECON,ioos:station:SCCF:56:1,2017-12-08T16:00:00Z,26.4645,-82.1044,1.19,3.09,1111122 
SCCF RECON,ioos:station:SCCF:56:1,2017-12-08T17:00:00Z,26.4645,-82.1044,1.2,3.26,1111122 
SCCF RECON,ioos:station:SCCF:56:1,2017-12-08T18:00:00Z,26.4645,-82.1044,1.33,5.45,1111122 
SCCF RECON,ioos:station:SCCF:56:1,2017-12-08T19:00:00Z,26.4645,-82.1044,1.478,5.95,1111122 
SCCF RECON,ioos:station:SCCF:56:1,2017-12-08T20:00:00Z,26.4645,-82.1044,1.58,5.93,1111122 
SCCF RECON,ioos:station:SCCF:56:1,2017-12-08T21:00:00Z,26.4645,-82.1044,1.68,5.96,1111122 
SCCF RECON,ioos:station:SCCF:56:1,2017-12-08T22:00:00Z,26.4645,-82.1044,1.76,5.93,1111122 
SCCF RECON,ioos:station:SCCF:56:1,2017-12-09T05:00:00Z,26.4645,-82.1044,1.69,5.09,1111122 
SCCF RECON,ioos:station:SCCF:56:1,2017-12-09T06:00:00Z,26.4645,-82.1044,1.793,5.51,1111122 
SCCF RECON,ioos:station:SCCF:56:1,2017-12-09T07:00:00Z,26.4645,-82.1044,1.887,5.31,1111122 
SCCF RECON,ioos:station:SCCF:56:1,2017-12-09T08:00:00Z,26.4645,-82.1044,1.93,5.1,1111122 
SCCF RECON,ioos:station:SCCF:56:1,2017-12-09T09:00:00Z,26.4645,-82.1044,1.98,5.18,1111122 
SCCF RECON,ioos:station:SCCF:56:1,2017-12-09T10:00:00Z,26.4645,-82.1044,2.01,5.15,1111122 
SCCF RECON,ioos:station:SCCF:56:1,2017-12-09T11:00:00Z,26.4645,-82.1044,2.005,5.08,1111122 
SCCF RECON,ioos:station:SCCF:56:1,2017-12-09T12:00:00Z,26.4645,-82.1044,1.941,4.89,1111122 
SCCF RECON,ioos:station:SCCF:56:1,2017-12-09T13:00:00Z,26.4645,-82.1044,1.83,4.38,1111122 
SCCF RECON,ioos:station:SCCF:56:1,2017-12-09T14:00:00Z,26.4645,-82.1044,1.69,3.84,1111122 
SCCF RECON,ioos:station:SCCF:56:1,2017-12-09T15:00:00Z,26.4645,-82.1044,1.515,3.66,1111122 
SCCF RECON,ioos:station:SCCF:56:1,2017-12-09T16:00:00Z,26.4645,-82.1044,1.36,3.61,1111122 
SCCF RECON,ioos:station:SCCF:56:1,2017-12-09T17:00:00Z,26.4645,-82.1044,1.24,3.67,1111122 
SCCF RECON,ioos:station:SCCF:56:1,2017-12-09T18:00:00Z,26.4645,-82.1044,1.21,3.73,1111122 
SCCF RECON,ioos:station:SCCF:56:1,2017-12-09T19:00:00Z,26.4645,-82.1044,1.34,5.89,1111122 
SCCF RECON,ioos:station:SCCF:56:1,2017-12-09T20:00:00Z,26.4645,-82.1044,1.498,5.9,1111122 
SCCF RECON,ioos:station:SCCF:56:1,2017-12-09T21:00:00Z,26.4645,-82.1044,1.55,5.69,1111122 
SCCF RECON,ioos:station:SCCF:56:1,2017-12-09T22:00:00Z,26.4645,-82.1044,1.55,5.59,1111122 
SCCF RECON,ioos:station:SCCF:56:1,2017-12-10T05:00:00Z,26.4645,-82.1044,1.369,4.75,1111122 
SCCF RECON,ioos:station:SCCF:56:1,2017-12-10T06:00:00Z,26.4645,-82.1044,1.3,4.87,1111122 
SCCF RECON,ioos:station:SCCF:56:1,2017-12-10T07:00:00Z,26.4645,-82.1044,1.29,4.76,1111122 
SCCF RECON,ioos:station:SCCF:56:1,2017-12-10T08:00:00Z,26.4645,-82.1044,1.361,5.19,1111122 
SCCF RECON,ioos:station:SCCF:56:1,2017-12-10T09:00:00Z,26.4645,-82.1044,1.44,5.73,1111122 
SCCF RECON,ioos:station:SCCF:56:1,2017-12-10T10:00:00Z,26.4645,-82.1044,1.474,5.92,1111122 
SCCF RECON,ioos:station:SCCF:56:1,2017-12-10T11:00:00Z,26.4645,-82.1044,1.49,5.88,1111122 
SCCF RECON,ioos:station:SCCF:56:1,2017-12-10T12:00:00Z,26.4645,-82.1044,1.51,5.85,1111122 
SCCF RECON,ioos:station:SCCF:56:1,2017-12-10T13:00:00Z,26.4645,-82.1044,1.51,5.79,1111122 
SCCF RECON,ioos:station:SCCF:56:1,2017-12-10T14:00:00Z,26.4645,-82.1044,1.47,5.61,1111122 
SCCF RECON,ioos:station:SCCF:56:1,2017-12-10T15:00:00Z,26.4645,-82.1044,1.382,5.21,1111122 
SCCF RECON,ioos:station:SCCF:56:1,2017-12-10T16:00:00Z,26.4645,-82.1044,1.32,5.27,1111122 
SCCF RECON,ioos:station:SCCF:56:1,2017-12-10T17:00:00Z,26.4645,-82.1044,1.247,5.4,1111122 
SCCF RECON,ioos:station:SCCF:56:1,2017-12-10T18:00:00Z,26.4645,-82.1044,1.216,5.64,1111122 
SCCF RECON,ioos:station:SCCF:56:1,2017-12-10T19:00:00Z,26.4645,-82.1044,1.2,5.85,1111122 
SCCF RECON,ioos:station:SCCF:56:1,2017-12-10T20:00:00Z,26.4645,-82.1044,1.28,8.8,1111122 
SCCF RECON,ioos:station:SCCF:56:1,2017-12-10T21:00:00Z,26.4645,-82.1044,1.419,8.09,1111122 
SCCF RECON,ioos:station:SCCF:56:1,2017-12-10T22:00:00Z,26.4645,-82.1044,1.54,7.4,1111122 
SCCF RECON,ioos:station:SCCF:56:1,2017-12-11T05:00:00Z,26.4645,-82.1044,1.512,6.74,1111122 
SCCF RECON,ioos:station:SCCF:56:1,2017-12-11T06:00:00Z,26.4645,-82.1044,1.43,6.51,1111122 
SCCF RECON,ioos:station:SCCF:56:1,2017-12-11T07:00:00Z,26.4645,-82.1044,1.37,6.28,1111122 
SCCF RECON,ioos:station:SCCF:56:1,2017-12-11T08:00:00Z,26.4645,-82.1044,1.36,6.2,1111122 
SCCF RECON,ioos:station:SCCF:56:1,2017-12-11T09:00:00Z,26.4645,-82.1044,1.41,6.37,1111122 
SCCF RECON,ioos:station:SCCF:56:1,2017-12-11T10:00:00Z,26.4645,-82.1044,1.48,6.87,1111122 
SCCF RECON,ioos:station:SCCF:56:1,2017-12-11T11:00:00Z,26.4645,-82.1044,1.55,6.89,1111122 
SCCF RECON,ioos:station:SCCF:56:1,2017-12-11T12:00:00Z,26.4645,-82.1044,1.6,7.0,1111122 
SCCF RECON,ioos:station:SCCF:56:1,2017-12-11T13:00:00Z,26.4645,-82.1044,1.63,6.45,1111122 
SCCF RECON,ioos:station:SCCF:56:1,2017-12-11T14:00:00Z,26.4645,-82.1044,1.603,6.3,1111122 
SCCF RECON,ioos:station:SCCF:56:1,2017-12-11T15:00:00Z,26.4645,-82.1044,1.528,6.56,1111122 
SCCF RECON,ioos:station:SCCF:56:1,2017-12-11T16:00:00Z,26.4645,-82.1044,1.45,6.8,1111122 
SCCF RECON,ioos:station:SCCF:56:1,2017-12-11T17:00:00Z,26.4645,-82.1044,1.38,6.79,1111122 
SCCF RECON,ioos:station:SCCF:56:1,2017-12-11T18:00:00Z,26.4645,-82.1044,1.31,6.71,1111122 
SCCF RECON,ioos:station:SCCF:56:1,2017-12-11T19:00:00Z,26.4645,-82.1044,1.26,6.72,1111122 
SCCF RECON,ioos:station:SCCF:56:1,2017-12-11T20:00:00Z,26.4645,-82.1044,1.28,7.07,1111122 
SCCF RECON,ioos:station:SCCF:56:1,2017-12-11T21:00:00Z,26.4645,-82.1044,1.37,9.04,1111122 
SCCF RECON,ioos:station:SCCF:56:1,2017-12-11T22:00:00Z,26.4645,-82.1044,1.502,8.84,1111122 
SCCF RECON,ioos:station:SCCF:56:1,2017-12-12T05:00:00Z,26.4645,-82.1044,1.61,7.43,1111122 
SCCF RECON,ioos:station:SCCF:56:1,2017-12-12T06:00:00Z,26.4645,-82.1044,1.51,7.33,1111122 
SCCF RECON,ioos:station:SCCF:56:1,2017-12-12T07:00:00Z,26.4645,-82.1044,1.43,7.13,1111122 
SCCF RECON,ioos:station:SCCF:56:1,2017-12-12T08:00:00Z,26.4645,-82.1044,1.38,6.98,1111122 
SCCF RECON,ioos:station:SCCF:56:1,2017-12-12T09:00:00Z,26.4645,-82.1044,1.4,6.92,1111122 
SCCF RECON,ioos:station:SCCF:56:1,2017-12-12T10:00:00Z,26.4645,-82.1044,1.515,7.03,1111122 
SCCF RECON,ioos:station:SCCF:56:1,2017-12-12T11:00:00Z,26.4645,-82.1044,1.62,7.02,1111122 
SCCF RECON,ioos:station:SCCF:56:1,2017-12-12T12:00:00Z,26.4645,-82.1044,1.7,6.98,1111122 
SCCF RECON,ioos:station:SCCF:56:1,2017-12-12T13:00:00Z,26.4645,-82.1044,1.76,7.07,1111122 
SCCF RECON,ioos:station:SCCF:56:1,2017-12-12T14:00:00Z,26.4645,-82.1044,1.81,7.59,1111122 
SCCF RECON,ioos:station:SCCF:56:1,2017-12-12T15:00:00Z,26.4645,-82.1044,1.83,8.0,1111122 
SCCF RECON,ioos:station:SCCF:56:1,2017-12-12T16:00:00Z,26.4645,-82.1044,1.8,7.76,1111122 
SCCF RECON,ioos:station:SCCF:56:1,2017-12-12T17:00:00Z,26.4645,-82.1044,1.71,8.09,1111122 
SCCF RECON,ioos:station:SCCF:56:1,2017-12-12T18:00:00Z,26.4645,-82.1044,1.61,7.69,1111122 
SCCF RECON,ioos:station:SCCF:56:1,2017-12-12T20:00:00Z,26.4645,-82.1044,1.55,7.79,1111122 
SCCF RECON,ioos:station:SCCF:56:1,2017-12-12T21:00:00Z,26.4645,-82.1044,1.588,8.11,1111122 
SCCF RECON,ioos:station:SCCF:56:1,2017-12-12T22:00:00Z,26.4645,-82.1044,1.64,8.99,1111122 
SCCF RECON,ioos:station:SCCF:56:1,2017-12-13T09:00:00Z,26.4645,-82.1044,1.25,6.07,1111122 
SCCF RECON,ioos:station:SCCF:56:1,2017-12-13T10:00:00Z,26.4645,-82.1044,1.22,5.88,1111122 
SCCF RECON,ioos:station:SCCF:56:1,2017-12-13T11:00:00Z,26.4645,-82.1044,1.28,5.98,1111122 
SCCF RECON,ioos:station:SCCF:56:1,2017-12-13T12:00:00Z,26.4645,-82.1044,1.4,6.42,1111122 
SCCF RECON,ioos:station:SCCF:56:1,2017-12-13T13:00:00Z,26.4645,-82.1044,1.5,6.49,1111122 
SCCF RECON,ioos:station:SCCF:56:1,2017-12-13T14:00:00Z,26.4645,-82.1044,1.58,6.87,1111122 
SCCF RECON,ioos:station:SCCF:56:1,2017-12-13T17:00:00Z,26.4645,-82.1044,1.62,7.33,1111122 
SCCF RECON,ioos:station:SCCF:56:1,2017-12-13T18:00:00Z,26.4645,-82.1044,1.563,7.43,1111122 
SCCF RECON,ioos:station:SCCF:56:1,2017-12-13T19:00:00Z,26.4645,-82.1044,1.493,7.39,1111122 
SCCF RECON,ioos:station:SCCF:56:1,2017-12-13T20:00:00Z,26.4645,-82.1044,1.472,7.4,1111122 
SCCF RECON,ioos:station:SCCF:56:1,2017-12-13T21:00:00Z,26.4645,-82.1044,1.51,8.68,1111122 
SCCF RECON,ioos:station:SCCF:56:1,2017-12-13T22:00:00Z,26.4645,-82.1044,1.571,9.21,1111122 
SCCF RECON,ioos:station:SCCF:56:1,2017-12-14T11:00:00Z,26.4645,-82.1044,1.31,5.92,1111122 
SCCF RECON,ioos:station:SCCF:56:1,2017-12-14T12:00:00Z,26.4645,-82.1044,1.44,6.28,1111122 
SCCF RECON,ioos:station:SCCF:56:1,2017-12-14T13:00:00Z,26.4645,-82.1044,1.58,6.58,1111122 
SCCF RECON,ioos:station:SCCF:56:1,2017-12-14T14:00:00Z,26.4645,-82.1044,1.66,6.76,1111122 
SCCF RECON,ioos:station:SCCF:56:1,2017-12-14T15:00:00Z,26.4645,-82.1044,1.73,7.19,1111122 
SCCF RECON,ioos:station:SCCF:56:1,2017-12-14T16:00:00Z,26.4645,-82.1044,1.77,7.52,1111122 
SCCF RECON,ioos:station:SCCF:56:1,2017-12-14T17:00:00Z,26.4645,-82.1044,1.78,7.63,1111122 
SCCF RECON,ioos:station:SCCF:56:1,2017-12-14T18:00:00Z,26.4645,-82.1044,1.74,7.5,1111122 
SCCF RECON,ioos:station:SCCF:56:1,2017-12-14T19:00:00Z,26.4645,-82.1044,1.671,7.88,1111122 
SCCF RECON,ioos:station:SCCF:56:1,2017-12-14T20:00:00Z,26.4645,-82.1044,1.62,7.19,1111122 
SCCF RECON,ioos:station:SCCF:56:1,2017-12-14T21:00:00Z,26.4645,-82.1044,1.6,7.21,1111122 
SCCF RECON,ioos:station:SCCF:56:1,2017-12-14T22:00:00Z,26.4645,-82.1044,1.6,7.16,1111122 
SCCF RECON,ioos:station:SCCF:56:1,2017-12-15T05:00:00Z,26.4645,-82.1044,1.96,7.09,1111122 
SCCF RECON,ioos:station:SCCF:56:1,2017-12-15T06:00:00Z,26.4645,-82.1044,1.85,6.72,1111122 
SCCF RECON,ioos:station:SCCF:56:1,2017-12-15T07:00:00Z,26.4645,-82.1044,1.69,6.43,1111122 
SCCF RECON,ioos:station:SCCF:56:1,2017-12-15T08:00:00Z,26.4645,-82.1044,1.55,5.95,1111122 
SCCF RECON,ioos:station:SCCF:56:1,2017-12-15T09:00:00Z,26.4645,-82.1044,1.43,5.7,1111122 
SCCF RECON,ioos:station:SCCF:56:1,2017-12-15T10:00:00Z,26.4645,-82.1044,1.32,5.47,1111122 
SCCF RECON,ioos:station:SCCF:56:1,2017-12-15T11:00:00Z,26.4645,-82.1044,1.27,5.27,1111122 
SCCF RECON,ioos:station:SCCF:56:1,2017-12-15T12:00:00Z,26.4645,-82.1044,1.32,5.22,1111122 
SCCF RECON,ioos:station:SCCF:56:1,2017-12-15T13:00:00Z,26.4645,-82.1044,1.48,6.07,1111122 
SCCF RECON,ioos:station:SCCF:56:1,2017-12-15T14:00:00Z,26.4645,-82.1044,1.62,6.15,1111122 
SCCF RECON,ioos:station:SCCF:56:1,2017-12-15T15:00:00Z,26.4645,-82.1044,1.71,6.42,1111122 
SCCF RECON,ioos:station:SCCF:56:1,2017-12-15T16:00:00Z,26.4645,-82.1044,1.79,6.83,1111122 
SCCF RECON,ioos:station:SCCF:56:1,2017-12-15T17:00:00Z,26.4645,-82.1044,1.828,7.24,1111122 
SCCF RECON,ioos:station:SCCF:56:1,2017-12-15T18:00:00Z,26.4645,-82.1044,1.788,7.05,1111122 
SCCF RECON,ioos:station:SCCF:56:1,2017-12-15T19:00:00Z,26.4645,-82.1044,1.719,6.95,1111122 
SCCF RECON,ioos:station:SCCF:56:1,2017-12-15T20:00:00Z,26.4645,-82.1044,1.65,6.81,1111122 
SCCF RECON,ioos:station:SCCF:56:1,2017-12-15T21:00:00Z,26.4645,-82.1044,1.622,6.71,1111122 
SCCF RECON,ioos:station:SCCF:56:1,2017-12-15T22:00:00Z,26.4645,-82.1044,1.61,6.74,1111122 
SCCF RECON,ioos:station:SCCF:56:1,2017-12-16T05:00:00Z,26.4645,-82.1044,1.9,6.86,1111122 
SCCF RECON,ioos:station:SCCF:56:1,2017-12-16T06:00:00Z,26.4645,-82.1044,1.79,6.63,1111122 
SCCF RECON,ioos:station:SCCF:56:1,2017-12-16T07:00:00Z,26.4645,-82.1044,1.64,6.11,1111122 
SCCF RECON,ioos:station:SCCF:56:1,2017-12-16T08:00:00Z,26.4645,-82.1044,1.5,5.41,1111122 
SCCF RECON,ioos:station:SCCF:56:1,2017-12-16T09:00:00Z,26.4645,-82.1044,1.38,5.1,1111122 
SCCF RECON,ioos:station:SCCF:56:1,2017-12-16T10:00:00Z,26.4645,-82.1044,1.26,4.85,1111122 